This demonstration page uses our WeatherBlox Daily Observations layout. Learn more.

Left ArrowRight Arrow

Hourly Observations for April 17, 2020

Temp ( °F °C ) Dew Point ( °F °C ) Humidity (%) Winds ( mph kmh ) Pressure ( in mb ) Visibility ( mi km ) Precip ( " mm )
12:51 am 00:51 Clear 54 12.2 18 -7.8 24 24 ESE 7 11 29.85 1011 10 16.0934 0 0
1:51 am 01:51 Clear 52 11.1 18 -7.8 26 26 ENE 6 9 29.85 1011 10 16.0934 0 0
2:51 am 02:51 Clear 53 11.7 18 -7.8 25 25 ENE 5 7 29.84 1010 10 16.0934 0 0
3:51 am 03:51 Clear 49 9.4 19 -7.2 31 31 WNW 5 7 29.85 1011 10 16.0934 0 0
4:51 am 04:51 Clear 46 7.8 18 -7.8 32 32 NNW 5 7 29.88 1012 10 16.0934 0 0
5:51 am 05:51 Sunny 51 10.6 19 -7.2 28 28 Calm 29.87 1012 10 16.0934 0 0
6:51 am 06:51 Sunny 55 12.8 20 -6.7 25 25 Calm 29.9 1013 10 16.0934 0 0
7:51 am 07:51 Sunny 61 16.1 21 -6.1 21 21 Calm 29.92 1013 10 16.0934 0 0
8:51 am 08:51 Sunny 67 19.4 21 -6.1 17 17 ESE 7 11 29.91 1013 10 16.0934 0 0
9:51 am 09:51 Sunny 72 22.2 19 -7.2 13 13 VRB 5 7 29.9 1012 10 16.0934 0 0
10:51 am 10:51 Sunny 74 23.3 20 -6.7 13 13 SE 7 11 29.88 1012 10 16.0934 0 0
11:51 am 11:51 Sunny 77 25 22 -5.6 13 13 SE 8 13 29.85 1011 10 16.0934 0 0
12:51 pm 12:51 undefined 78 25.6 23 -5 13 13 VRB 6 9 29.83 1010 10 16.0934 0 0
1:51 pm 13:51 Sunny 83 28.3 24 -4.4 11 11 N 7 11 29.8 1009 10 16.0934 0 0
2:51 pm 14:51 Sunny 82 27.8 23 -5 11 11 VRB 7 11 29.78 1008 10 16.0934 0 0
3:51 pm 15:51 Sunny 82 27.8 23 -5 11 11 S 8 13 29.76 1008 10 16.0934 0 0
4:51 pm 16:51 Sunny 82 27.8 18 -7.8 9 9 SSW 13 20 29.76 1008 10 16.0934 0 0
5:51 pm 17:51 Sunny 80 26.7 21 -6.1 11 11 W 13 20 29.75 1008 10 16.0934 0 0
6:51 pm 18:51 Clear 76 24.4 19 -7.2 12 12 SSW 12 19 29.76 1008 10 16.0934 0 0
7:51 pm 19:51 Clear 70 21.1 22 -5.6 16 16 NNW 3 6 29.79 1009 10 16.0934 0 0
8:51 pm 20:51 Clear 69 20.6 23 -5 17 17 N 5 7 29.81 1009 10 16.0934 0 0
9:51 pm 21:51 Clear 65 18.3 23 -5 20 20 NNE 7 11 29.81 1010 10 16.0934 0 0
10:51 pm 22:51 Clear 64 17.8 20 -6.7 18 18 ENE 6 9 29.83 1010 10 16.0934 0 0
11:51 pm 23:51 Clear 66 18.9 21 -6.1 18 18 N 6 9 29.81 1010 10 16.0934 0 0

Powered by AerisWeather